GS1960 Weather Reports


time (UTC)temp
F
wind
direction
speed
knots
gust
knots
rain 1hr
in
rain 24hr
in
rain mn
in
humidity
%
barometer
mb
20260506091514 64 64 7.8 12.2 0.00 1.16 1.07 80 1008.9
20260506090014 63 140 5.2 9.6 0.00 1.17 1.07 84 1008.8
20260506081506 61 131 2.6 7.8 0.00 1.17 1.07 87 1008.7
20260506073015 58 260 0.0 0.9 0.14 1.17 1.07 91 1008.5
20260506071509 57 306 0.0 4.3 0.15 1.17 1.07 90 1008.5
20260506061508 55 289 0.9 1.7 0.00 1.03 0.92 92 1007.9
20260506044545 54 297 0.0 1.7 0.01 1.46 0.92 92 1008.9
20260506043014 54 311 0.0 1.7 0.01 1.54 0.92 92 1009.0
20260506041512 54 293 0.0 0.0 0.00 1.67 0.91 92 1009.6
20260506040007 54 293 0.9 1.7 0.00 1.90 0.91 92 1009.6
20260506034530 55 274 0.0 0.9 0.04 2.00 0.91 92 1009.6
20260506033016 55 278 0.0 0.9 0.05 2.07 0.91 92 1009.5
20260506031517 55 282 1.7 5.2 0.06 2.13 0.91 92 1009.6
20260506030018 55 352 0.0 2.6 0.16 2.18 0.91 92 1010.0
20260506024511 56 89 0.0 1.7 0.22 2.17 0.87 92 1010.2
20260506023016 56 84 0.0 0.9 0.32 2.19 0.86 92 1010.4
20260506021518 56 84 0.0 0.0 0.42 2.20 0.85 92 1010.5
20260506020020 56 84 0.0 2.6 0.54 2.13 0.75 91 1011.1
20260506013009 57 264 0.0 2.6 0.54 1.99 0.54 92 1011.2
20260506011517 57 105 0.0 1.7 0.43 1.91 0.43 91 1010.9
20260506010022 57 82 0.0 2.6 0.21 1.73 0.21 91 1011.0
20260506004533 57 263 0.0 0.0 0.00 1.54 0.00 91 1011.1
20260506001513 57 271 0.0 0.9 0.00 1.54 0.00 91 1011.2
20260506000022 57 279 0.0 0.9 0.00 1.54 0.00 91 1011.3
20260505234533 57 302 0.0 1.7 0.00 1.54 0.00 91 1011.7
20260505233025 57 262 0.0 0.0 0.00 1.54 0.00 91 1011.9
20260505231526 57 262 0.0 0.9 0.00 1.54 0.00 91 1012.2
20260505230030 57 262 0.0 0.9 0.00 1.54 0.00 91 1012.1
20260505224520 57 269 0.9 1.7 0.00 1.54 0.00 91 1012.2
20260505223024 57 299 0.0 1.7 0.00 1.54 0.00 91 1012.4
20260505221512 57 286 0.0 0.9 0.00 1.54 0.00 91 1012.5
20260505220023 57 255 0.0 0.9 0.00 1.54 0.00 90 1012.5
20260505214523 57 255 0.0 0.9 0.00 1.54 1.54 90 1012.7
20260505213018 57 274 0.0 0.0 0.00 1.54 1.54 90 1012.9
20260505211504 57 274 0.0 0.9 0.00 1.54 1.54 90 1012.8
20260505210012 58 253 0.9 1.7 0.00 1.54 1.54 89 1013.0
20260505204515 58 293 0.0 1.7 0.00 1.54 1.54 89 1013.2
20260505203018 58 298 1.7 3.5 0.00 1.54 1.54 89 1013.2
20260505201524 58 277 0.0 0.9 0.00 1.54 1.54 89 1013.1
20260505200008 58 236 0.0 0.0 0.00 1.54 1.54 88 1013.2
20260505194527 59 284 0.0 0.9 0.00 1.54 1.54 88 1013.2
20260505193032 59 273 0.0 0.0 0.00 1.54 1.54 88 1013.1
20260505191518 59 274 0.0 1.7 0.00 1.54 1.54 87 1013.1
20260505190025 60 86 0.0 0.0 0.00 1.54 1.54 85 1012.9
20260505184527 60 86 0.0 2.6 0.00 1.54 1.54 85 1012.9
20260505180032 61 257 0.0 5.2 0.00 1.54 1.54 83 1012.9
20260505174532 61 105 0.9 3.5 0.00 1.54 1.54 82 1012.9
20260505173025 61 76 3.5 6.1 0.00 1.54 1.54 82 1012.8
20260505171514 61 101 2.6 6.1 0.00 1.54 1.54 81 1012.7
20260505170024 62 84 3.5 7.8 0.00 1.54 1.54 81 1013.0
20260505164520 62 96 3.5 4.3 0.00 1.54 1.54 80 1012.9
20260505163025 62 87 0.9 5.2 0.00 1.54 1.54 81 1012.7
20260505161526 62 104 2.6 5.2 0.00 1.54 1.54 81 1012.8
20260505153024 63 69 2.6 6.1 0.00 1.54 1.54 81 1013.0
20260505151529 63 88 1.7 4.3 0.00 1.54 1.54 80 1013.0
20260505124526 64 91 0.9 2.6 0.00 1.54 1.54 78 1013.3
20260505123041 63 105 0.9 1.7 0.00 1.54 1.54 78 1013.5
20260505121528 62 145 0.0 0.9 0.00 1.54 1.54 82 1013.5
20260505120027 61 143 0.0 2.6 0.00 1.54 1.54 82 1013.7
20260505114506 61 180 0.0 1.7 0.00 1.54 1.54 83 1013.7
20260505113012 61 124 0.0 3.5 0.00 1.54 1.54 83 1013.7
20260505111516 60 95 0.9 3.5 0.00 1.54 1.54 82 1013.7
20260505101514 58 129 0.0 0.9 0.10 1.54 1.54 88 1013.9
20260505100018 57 154 0.0 0.9 0.10 1.53 1.53 88 1014.0
20260505094524 56 294 0.0 2.6 0.05 1.48 1.48 87 1013.9
20260505093029 56 260 0.9 2.6 0.02 1.45 1.45 86 1013.9